Погода в Димитровграде

Погода в Димитровграде : погода сейчас, прогноз погоды и архив. Всё, что Вы хотите узнать о погоде в Димитровграде!

Хотите узнать прогноз погоды в Димитровграде? Тогда Вам сюда: Погода в Димитровграде

Поиск расширенной информации на нашем сайте:

Другие новости

Новости СМИ2

Главная страница сайта

Новости сайта

02.10.2013

Напоминаем, что на нашем новом сайте вы можете получить высокодетализированные прогнозы погоды по пунктам России, СНГ и мира (включающие важные для авиации метеовеличины, такие как направление и скорость ветра, видимость, явления погоды, количество и форма облачности, нижняя и верхняя граница облачности), а также ознакомиться с разнообразными материалами по авиационной метеорологии и подборкой полезных ссылок на эту тему.

Сайт Метеоцентр.Азия посвящён разработке технологий оптимизации авиаметеорологического обслуживания, включая проектирование и перспективное создание нескольких автоматизированных авиаметеорологических систем:
- система выпуска высокодетальных прогностических карт явлений погоды для нижнего воздушного пространства по России и ближнему зарубежью;
- система верификации прогнозов TAF (выпускаемых синоптиками официальных АМСГ РФ и ближнего зарубежья) и AUTOTAF (выпускаемых сайтом Метеоцентр.Азия) - выявление ошибок, онлайн-сопоставление с фактической погодой METAR, автоматическое внесение коррективов в прогнозы при резком отклонении фактической погоды от прогноза, подсчёт оправдываемости прогнозов по элементам и в целом;
- система обработки, анализа и отображения авиаметеорологической информации для применения провайдерами метеорологической информации.

Рекомендуем: п образный профиль Спб

Погода в Димитровграде - сегодня

Время (UTC), дата Ветер
(°,м/с) 
Видим.   Явления Облачность Т
(°С)
Тd
(°С)
f(%) Тe
(°С)
Pmin
(гПа)
dP
(гПа)
Po
(мм)
O2
(г/м3)
Тmin Tmax R s Состояние
почвы
12 22.04.17 120 (ЮВ) 4000 м  слаб. дождь  10/10 750 м 
[Frnb|Ns]
+2.1 +1 92 +1  1004.2  -3.4  746  298           
15 22.04.17 100 (В) 4000 м  слаб. снег{дождь}  10/10 700 м 
[Frnb|Ns]
+0.5 +0 96 1002.3  -1.9  745  300    +5.8     
18 22.04.17 030 (СВ) 10 км  слаб. дождь{снег}  10/10 660 м 
[Frnb|Ns]
+0.5 -0.1 96 +1  1001.2  -1.2  744  299           
21 22.04.17 280 (З) 10 км  в посл. час дождь  10/10 700 м 
[Frnb|Ns]
+0.6 +0.2 97 +1  1001.9  0.7  745  299           
00 23.04.17 тихо ()   10 км  {дождь}  10/10 870 м 
[Sc]
+0.4 -0.1 96 1002.9  745  300           
03 23.04.17 170 (Ю) 10 км    10/0 средняя 
[Ac As]
+0.9 +0.4 96 +2  1002.9  0.1  745  299  -0.3      мокрая 
06 23.04.17 230 (ЮЗ) 10 км    10/10 840 м 
[Sc]
+4.1 +2.5 89 +2  1004.9  747  296           
09 23.04.17 210 (ЮЗ) 10 км    8/8 800 м кучево-дожд. 
[Cb cap]
+10.8 +3 59 +10  1006.3  1.6  748  290           
12 23.04.17 210 (ЮЗ) 2{10}  10 км    6/5 870 м верхняя 
[Cu med, cong|Ci fib]
+14.4 -1.4 34 +15  1006.6  0.4  748  287           
15 23.04.17 250 (З) 10 км    3/3 870 м 
[Cu med, cong]
+12.2 -2.6 36 +13  1007.7  749  289    +14.6       
18 23.04.17 330 (СЗ) 10 км    10/0 средняя 
[Ac und]
+5.1 -0.4 68 +4  1009.4  1.4  750  297           
21 23.04.17 100 (В) 10 км    10/0 средняя 
[As op]
+3.7 -0.1 76 +5  1009.9  0.5  751  298           
00 24.04.17 360 (С) 10 км    10/0 средняя 
[As op]
+3.9 +1.7 86 +5  1009.7  -0.2  751  298           
03 24.04.17 050 (СВ) 10 км    10/0 средняя 
[As op]
+5.3 +4.6 95 +6  1007.4  -2.3  749  295  +3.3        мокрая 
06 24.04.17 070 (В) 4000 м  слаб. дождь  10/10 660 м 
[Frnb|Ns]
+6.1 +5.5 96 +7  1004  -3.3  746  293           
09 24.04.17 040 (СВ) 4000 м  слаб. дождь  10/10 700 м 
[Frnb|Ns]
+7.4 +6.4 93 +6  999.5  -4.4  743  290           
12 24.04.17 050 (СВ) 4000 м  дождь  10/10 630 м 
[Frnb|Ns]
+7.1 +6.2 94 +6  996.5  -3  741  290           
15 24.04.17 080 (В) 4000 м  дождь  10/10 660 м 
[Frnb|Ns]
+7.3 +6.6 95 +8  994.2  -2.2  739  289    +7.6  22     
18 24.04.17 290 (З) 10 км  слаб. дождь  10/10 660 м 
[Frnb|Ns]
+5 +4 93 +3  996.4  741  292           
21 24.04.17 270 (З) 4-12  10 км  {дождь}  10/0 средняя 
[Ac As]
+2.5 +1 90 1002.3  5.7  745  297           
00 25.04.17 260 (З) 4-12  10 км  {дождь}  10/10 600 м 
[Sc]
+2.8 +0.7 86 +1  1006.6  4.2  748  298           
03 25.04.17 280 (З) 2{12}  10 км    6/4 900 м верхняя 
[Sc|Ci fib]
+3.3 +1 85 +3  1010  3.4  751  299  +2.2    0.5    мокрая 
06 25.04.17 250 (З) 10 км    6/4 900 м верхняя 
[Cu med, cong|Ci fib]
+8.7 +0.5 56 +8  1012.5  2.7  753  294           
09 25.04.17 230 (ЮЗ) 10 км    8/8 840 м кучево-дожд. 
[Cb cap]
+10.8 -0.2 47 +11  1014.3  1.8  754  292           
12 25.04.17 210 (ЮЗ) 10 км    4/4 870 м 
[Cu med, cong]
+10.8 -2.7 39 +10  1015.3  0.9  755  293           
Время (UTC), дата Ветер
(°,м/с) 
Видим.   Явления Облачность Т
(°С)
Тd
(°С)
f(%) Тe
(°С)
Pmin
(гПа)
dP
(гПа)
Po
(мм)
O2
(г/м3)
Тmin Tmax R s Состояние
почвы

Для получения пояснительной информации подведите курсор к названию столбца.

ПОГОДА в Димитровграде - архив

Всё, что Вы хотите узнать о погоде в Димитровграде - удобно и подробно!

Выберите нужную дату (начиная с 1 января 2015* года) и нажмите кнопку "Найти".
Будут отображены архивные сводки погоды по пункту Димитровград, начиная с указанной даты.


Отображать данные в формате CSV (для использования в таблицах Excel)


Внимание! Наш архив погоды предназначен исключительно для личного некоммерческого использования в познавательных целях. Если Вам необходимы официальные справки о состоянии погоды (для производственных, юридических, коммерческих и т.п. целей), обращайтесь в органы Росгидромета.

*Примечание: данная дата относится к архиву по метеостанциям СССР (Россия, СНГ, Балтия).
Архив по метеостанциям Зарубежной Европы и Азии (кроме Китая) хранится 10 дней, по другим регионам земного шара (Китай, Африка, Америка, Австралия, Океания) - 1 день.

Димитровград - район местоположения метеостанции


Название, широта, долгота, высота метеостанции:
Димитровград 54.2°ш. 49.6°д. 73 м над ур. моря [Российская Федерация]

Дополнительная информация

В oтличие oт бoльшинства пoгoдных сайтoв мы публикуем пoдрoбную метеoинфoрмацию в детальнoм прoфессиoнальнoм фoрмате.

Характеристики температуры и влажнoсти вoздуха измеряются на высoте 2 м в тени вдали oт зданий и деревьев.
Скoрoсть ветра измеряется на высoте 10 м (на урoвне рoста челoвека скoрoсть ветра ниже в 1.5-2 раза). Если метеoстанция нахoдится в гoрoде или в лесу, тo скoрoсть ветра занижена на 2-4 м/с пo сравнению с oткрытым местoм. Скoрoсть ветра над акватoриями крупных рек и oзёр, а также на вершинах хoлмoв на 2-5 м/с выше, чем в oбычных услoвиях.
Атмoсфернoе давление в разных тoчках местнoсти мoжет значительнo oтличаться oт давления на метеoстанции, в зависимoсти oт услoвий рельефа (при пoдъёме на 10 м давление пoнижается примернo на 1 мм рт.ст.).